Time,TemperatureF,DewpointF,PressureIn,WindDirection,WindDirectionDegrees,WindSpeedMPH,WindSpeedGustMPH,Humidity,HourlyPrecipIn,Conditions,Clouds,dailyrainin,SoftwareType,DateUTC
2013-02-23 00:00:00,50.0,50.0,30.07,NNW,340,7.0,9.0,100,-99.99,,,-99.99,,2013-02-23 05:00:00,
2013-02-23 00:22:00,50.0,50.0,30.07,NNW,340,7.0,9.0,100,-99.99,,,-99.99,,2013-02-23 05:22:00,
2013-02-23 00:32:00,50.0,50.0,30.07,NNW,340,7.0,9.0,100,-99.99,,,-99.99,,2013-02-23 05:32:00,
2013-02-23 00:41:00,50.0,50.0,30.07,NNW,340,7.0,9.0,100,-99.99,,,-99.99,,2013-02-23 05:41:00,
2013-02-23 00:51:00,50.0,50.0,30.07,NNW,340,7.0,9.0,100,-99.99,,,-99.99,,2013-02-23 05:51:00,
2013-02-23 01:00:00,50.0,50.0,30.04,NNW,330,7.0,9.0,100,-99.99,,,-99.99,,2013-02-23 06:00:00,
2013-02-23 01:21:00,50.0,50.0,30.04,NNW,330,7.0,9.0,100,-99.99,,,-99.99,,2013-02-23 06:21:00,
2013-02-23 01:31:00,50.0,50.0,30.04,NNW,330,7.0,9.0,100,-99.99,,,-99.99,,2013-02-23 06:31:00,
2013-02-23 01:41:00,50.0,50.0,30.04,NNW,330,7.0,9.0,100,-99.99,,,-99.99,,2013-02-23 06:41:00,
2013-02-23 01:51:00,50.0,50.0,30.04,NNW,330,7.0,9.0,100,-99.99,,,-99.99,,2013-02-23 06:51:00,
2013-02-23 02:00:00,49.0,49.0,30.05,NW,320,6.0,8.0,100,-99.99,,,-99.99,,2013-02-23 07:00:00,
2013-02-23 02:21:00,49.0,49.0,30.05,NW,320,6.0,8.0,100,-99.99,,,-99.99,,2013-02-23 07:21:00,
2013-02-23 02:31:00,49.0,49.0,30.05,NW,320,6.0,8.0,100,-99.99,,,-99.99,,2013-02-23 07:31:00,
2013-02-23 02:41:00,49.0,49.0,30.05,NW,320,6.0,8.0,100,-99.99,,,-99.99,,2013-02-23 07:41:00,
2013-02-23 02:51:00,49.0,49.0,30.05,NW,320,6.0,8.0,100,-99.99,,,-99.99,,2013-02-23 07:51:00,
2013-02-23 03:00:00,47.0,47.0,29.99,NNW,340,8.0,10.0,100,-99.99,,,-99.99,,2013-02-23 08:00:00,
2013-02-23 03:21:00,47.0,47.0,29.99,NNW,340,8.0,10.0,100,-99.99,,,-99.99,,2013-02-23 08:21:00,
2013-02-23 03:31:00,47.0,47.0,29.99,NNW,340,8.0,10.0,100,-99.99,,,-99.99,,2013-02-23 08:31:00,
2013-02-23 03:41:00,47.0,47.0,29.99,NNW,340,8.0,10.0,100,-99.99,,,-99.99,,2013-02-23 08:41:00,
2013-02-23 03:52:00,47.0,47.0,29.99,NNW,340,8.0,10.0,100,-99.99,,,-99.99,,2013-02-23 08:52:00,
2013-02-23 04:00:00,48.0,48.0,29.98,NNE,20,5.0,6.0,100,-99.99,,,-99.99,,2013-02-23 09:00:00,
2013-02-23 04:21:00,48.0,48.0,29.98,NNE,20,5.0,6.0,100,-99.99,,,-99.99,,2013-02-23 09:21:00,
2013-02-23 04:31:00,48.0,48.0,29.98,NNE,20,5.0,6.0,100,-99.99,,,-99.99,,2013-02-23 09:31:00,
2013-02-23 04:41:00,48.0,48.0,29.98,NNE,20,5.0,6.0,100,-99.99,,,-99.99,,2013-02-23 09:41:00,
2013-02-23 04:51:00,48.0,48.0,29.98,NNE,20,5.0,6.0,100,-99.99,,,-99.99,,2013-02-23 09:51:00,
2013-02-23 05:00:00,50.0,50.0,29.97,NE,40,9.0,10.0,100,-99.99,,,-99.99,,2013-02-23 10:00:00,
2013-02-23 05:21:00,50.0,50.0,29.97,NE,40,9.0,10.0,100,-99.99,,,-99.99,,2013-02-23 10:21:00,
2013-02-23 05:31:00,50.0,50.0,29.97,NE,40,9.0,10.0,100,-99.99,,,-99.99,,2013-02-23 10:31:00,
2013-02-23 05:41:00,50.0,50.0,29.97,NE,40,9.0,10.0,100,-99.99,,,-99.99,,2013-02-23 10:41:00,
2013-02-23 05:51:00,50.0,50.0,29.97,NE,40,9.0,10.0,100,-99.99,,,-99.99,,2013-02-23 10:51:00,
2013-02-23 06:00:00,48.0,48.0,29.97,North,10,10.0,11.0,100,-99.99,,,-99.99,,2013-02-23 11:00:00,
2013-02-23 06:21:00,48.0,48.0,29.97,North,10,10.0,11.0,100,-99.99,,,-99.99,,2013-02-23 11:21:00,
2013-02-23 06:32:00,48.0,48.0,29.97,North,10,10.0,11.0,100,-99.99,,,-99.99,,2013-02-23 11:32:00,
2013-02-23 06:41:00,48.0,48.0,29.97,North,10,10.0,11.0,100,-99.99,,,-99.99,,2013-02-23 11:41:00,
2013-02-23 06:52:00,48.0,48.0,29.97,North,10,10.0,11.0,100,-99.99,,,-99.99,,2013-02-23 11:52:00,
2013-02-23 07:00:00,48.0,48.0,29.96,NE,50,9.0,10.0,99,-99.99,,,-99.99,,2013-02-23 12:00:00,
2013-02-23 07:21:00,48.0,48.0,29.96,NE,50,9.0,10.0,99,-99.99,,,-99.99,,2013-02-23 12:21:00,
2013-02-23 07:32:00,48.0,48.0,29.96,NE,50,9.0,10.0,99,-99.99,,,-99.99,,2013-02-23 12:32:00,
2013-02-23 07:41:00,48.0,48.0,29.96,NE,50,9.0,10.0,99,-99.99,,,-99.99,,2013-02-23 12:41:00,
2013-02-23 07:52:00,48.0,48.0,29.96,NE,50,9.0,10.0,99,-99.99,,,-99.99,,2013-02-23 12:52:00,
2013-02-23 08:00:00,50.0,50.0,29.96,ENE,70,10.0,11.0,100,-99.99,,,-99.99,,2013-02-23 13:00:00,
2013-02-23 08:22:00,50.0,50.0,29.96,ENE,70,10.0,11.0,100,-99.99,,,-99.99,,2013-02-23 13:22:00,
2013-02-23 08:31:00,50.0,50.0,29.96,ENE,70,10.0,11.0,100,-99.99,,,-99.99,,2013-02-23 13:31:00,
2013-02-23 08:41:00,50.0,50.0,29.96,ENE,70,10.0,11.0,100,-99.99,,,-99.99,,2013-02-23 13:41:00,
2013-02-23 08:51:00,50.0,50.0,29.96,ENE,70,10.0,11.0,100,-99.99,,,-99.99,,2013-02-23 13:51:00,
2013-02-23 09:00:00,51.0,51.0,29.98,ENE,60,7.0,7.0,100,-99.99,,,-99.99,,2013-02-23 14:00:00,
2013-02-23 09:21:00,51.0,51.0,29.98,ENE,60,7.0,7.0,100,-99.99,,,-99.99,,2013-02-23 14:21:00,
2013-02-23 09:32:00,51.0,51.0,29.98,ENE,60,7.0,7.0,100,-99.99,,,-99.99,,2013-02-23 14:32:00,
2013-02-23 09:41:00,51.0,51.0,29.98,ENE,60,7.0,7.0,100,-99.99,,,-99.99,,2013-02-23 14:41:00,
2013-02-23 09:52:00,51.0,51.0,29.98,ENE,60,7.0,7.0,100,-99.99,,,-99.99,,2013-02-23 14:52:00,
2013-02-23 10:00:00,52.0,52.0,29.98,NNW,340,10.0,14.0,100,-99.99,,,-99.99,,2013-02-23 15:00:00,
2013-02-23 10:21:00,52.0,52.0,29.98,NNW,340,10.0,14.0,100,-99.99,,,-99.99,,2013-02-23 15:21:00,
2013-02-23 10:31:00,52.0,52.0,29.98,NNW,340,10.0,14.0,100,-99.99,,,-99.99,,2013-02-23 15:31:00,
2013-02-23 10:41:00,52.0,52.0,29.98,NNW,340,10.0,14.0,100,-99.99,,,-99.99,,2013-02-23 15:41:00,
2013-02-23 10:51:00,52.0,52.0,29.98,NNW,340,10.0,14.0,100,-99.99,,,-99.99,,2013-02-23 15:51:00,
2013-02-23 11:00:00,51.0,51.0,29.97,North,0,0.0,1.0,100,-99.99,,,-99.99,,2013-02-23 16:00:00,
2013-02-23 11:21:00,51.0,51.0,29.97,North,0,0.0,1.0,100,-99.99,,,-99.99,,2013-02-23 16:21:00,
2013-02-23 11:31:00,51.0,51.0,29.97,North,0,0.0,1.0,100,-99.99,,,-99.99,,2013-02-23 16:31:00,
2013-02-23 11:42:00,51.0,51.0,29.97,North,0,0.0,1.0,100,-99.99,,,-99.99,,2013-02-23 16:42:00,
2013-02-23 11:51:00,51.0,51.0,29.97,North,0,0.0,1.0,100,-99.99,,,-99.99,,2013-02-23 16:51:00,
2013-02-23 12:00:00,53.0,53.0,29.97,South,190,6.0,6.0,100,-99.99,,,-99.99,,2013-02-23 17:00:00,
2013-02-23 12:21:00,53.0,53.0,29.97,South,190,6.0,6.0,100,-99.99,,,-99.99,,2013-02-23 17:21:00,
2013-02-23 12:31:00,53.0,53.0,29.97,South,190,6.0,6.0,100,-99.99,,,-99.99,,2013-02-23 17:31:00,
2013-02-23 12:41:00,53.0,53.0,29.97,South,190,6.0,6.0,100,-99.99,,,-99.99,,2013-02-23 17:41:00,
2013-02-23 12:52:00,53.0,53.0,29.97,South,190,6.0,6.0,100,-99.99,,,-99.99,,2013-02-23 17:52:00,
2013-02-23 13:00:00,56.0,56.0,29.94,South,190,6.0,7.0,100,-99.99,,,-99.99,,2013-02-23 18:00:00,
2013-02-23 13:21:00,56.0,56.0,29.94,South,190,6.0,7.0,100,-99.99,,,-99.99,,2013-02-23 18:21:00,
2013-02-23 13:31:00,56.0,56.0,29.94,South,190,6.0,7.0,100,-99.99,,,-99.99,,2013-02-23 18:31:00,
2013-02-23 13:41:00,56.0,56.0,29.94,South,190,6.0,7.0,100,-99.99,,,-99.99,,2013-02-23 18:41:00,
2013-02-23 13:51:00,56.0,56.0,29.94,South,190,6.0,7.0,100,-99.99,,,-99.99,,2013-02-23 18:51:00,
2013-02-23 14:00:00,57.0,57.0,29.93,SSW,210,10.0,10.0,100,-99.99,,,-99.99,,2013-02-23 19:00:00,
2013-02-23 14:21:00,57.0,57.0,29.93,SSW,210,10.0,10.0,100,-99.99,,,-99.99,,2013-02-23 19:21:00,
2013-02-23 14:32:00,57.0,57.0,29.93,SSW,210,10.0,10.0,100,-99.99,,,-99.99,,2013-02-23 19:32:00,
2013-02-23 14:41:00,57.0,57.0,29.93,SSW,210,10.0,10.0,100,-99.99,,,-99.99,,2013-02-23 19:41:00,
2013-02-23 14:51:00,57.0,57.0,29.93,SSW,210,10.0,10.0,100,-99.99,,,-99.99,,2013-02-23 19:51:00,
2013-02-23 15:00:00,59.0,59.0,29.91,SW,220,14.0,17.0,100,-99.99,,,-99.99,,2013-02-23 20:00:00,
2013-02-23 15:21:00,59.0,59.0,29.91,SW,220,14.0,17.0,100,-99.99,,,-99.99,,2013-02-23 20:21:00,
2013-02-23 15:31:00,59.0,59.0,29.91,SW,220,14.0,17.0,100,-99.99,,,-99.99,,2013-02-23 20:31:00,
2013-02-23 15:41:00,59.0,59.0,29.91,SW,220,14.0,17.0,100,-99.99,,,-99.99,,2013-02-23 20:41:00,
2013-02-23 15:52:00,59.0,59.0,29.91,SW,220,14.0,17.0,100,-99.99,,,-99.99,,2013-02-23 20:52:00,
2013-02-23 16:00:00,59.0,59.0,29.86,SSW,200,15.0,17.0,100,-99.99,,,-99.99,,2013-02-23 21:00:00,
2013-02-23 16:21:00,59.0,59.0,29.86,SSW,200,15.0,17.0,100,-99.99,,,-99.99,,2013-02-23 21:21:00,
2013-02-23 16:31:00,59.0,59.0,29.86,SSW,200,15.0,17.0,100,-99.99,,,-99.99,,2013-02-23 21:31:00,
2013-02-23 16:41:00,59.0,59.0,29.86,SSW,200,15.0,17.0,100,-99.99,,,-99.99,,2013-02-23 21:41:00,
2013-02-23 16:51:00,59.0,59.0,29.86,SSW,200,15.0,17.0,100,-99.99,,,-99.99,,2013-02-23 21:51:00,
2013-02-23 17:00:00,60.0,60.0,29.84,SW,220,8.0,11.0,100,-99.99,,,-99.99,,2013-02-23 22:00:00,
2013-02-23 17:21:00,60.0,60.0,29.84,SW,220,8.0,11.0,100,-99.99,,,-99.99,,2013-02-23 22:21:00,
2013-02-23 17:31:00,60.0,60.0,29.84,SW,220,8.0,11.0,100,-99.99,,,-99.99,,2013-02-23 22:31:00,
2013-02-23 17:41:00,60.0,60.0,29.84,SW,220,8.0,11.0,100,-99.99,,,-99.99,,2013-02-23 22:41:00,
2013-02-23 17:51:00,60.0,60.0,29.84,SW,220,8.0,11.0,100,-99.99,,,-99.99,,2013-02-23 22:51:00,
2013-02-23 18:00:00,60.0,60.0,29.86,WSW,250,3.0,5.0,100,-99.99,,,-99.99,,2013-02-23 23:00:00,
2013-02-23 18:21:00,60.0,60.0,29.86,WSW,250,3.0,5.0,100,-99.99,,,-99.99,,2013-02-23 23:21:00,
2013-02-23 18:31:00,60.0,60.0,29.86,WSW,250,3.0,5.0,100,-99.99,,,-99.99,,2013-02-23 23:31:00,
2013-02-23 18:41:00,60.0,60.0,29.86,WSW,250,3.0,5.0,100,-99.99,,,-99.99,,2013-02-23 23:41:00,
2013-02-23 18:51:00,60.0,60.0,29.86,WSW,250,3.0,5.0,100,-99.99,,,-99.99,,2013-02-23 23:51:00,
2013-02-23 19:00:00,59.0,59.0,29.88,NW,320,3.0,5.0,100,-99.99,,,-99.99,,2013-02-24 00:00:00,
2013-02-23 19:21:00,59.0,59.0,29.88,NW,320,3.0,5.0,100,-99.99,,,-99.99,,2013-02-24 00:21:00,
2013-02-23 19:31:00,59.0,59.0,29.88,NW,320,3.0,5.0,100,-99.99,,,-99.99,,2013-02-24 00:31:00,
2013-02-23 19:42:00,59.0,59.0,29.88,NW,320,3.0,5.0,100,-99.99,,,-99.99,,2013-02-24 00:42:00,
2013-02-23 19:51:00,59.0,59.0,29.88,NW,320,3.0,5.0,100,-99.99,,,-99.99,,2013-02-24 00:51:00,
2013-02-23 20:00:00,55.0,55.0,29.91,North,0,0.0,1.0,100,-99.99,,,-99.99,,2013-02-24 01:00:00,
2013-02-23 20:21:00,55.0,55.0,29.91,North,0,0.0,1.0,100,-99.99,,,-99.99,,2013-02-24 01:21:00,
2013-02-23 20:31:00,55.0,55.0,29.91,North,0,0.0,1.0,100,-99.99,,,-99.99,,2013-02-24 01:31:00,
2013-02-23 20:41:00,55.0,55.0,29.91,North,0,0.0,1.0,100,-99.99,,,-99.99,,2013-02-24 01:41:00,
2013-02-23 20:51:00,55.0,55.0,29.91,North,0,0.0,1.0,100,-99.99,,,-99.99,,2013-02-24 01:51:00,
2013-02-23 21:00:00,55.0,55.0,29.94,WNW,290,7.0,10.0,100,-99.99,,,-99.99,,2013-02-24 02:00:00,
2013-02-23 21:21:00,55.0,55.0,29.94,WNW,290,7.0,10.0,100,-99.99,,,-99.99,,2013-02-24 02:21:00,
2013-02-23 21:31:00,55.0,55.0,29.94,WNW,290,7.0,10.0,100,-99.99,,,-99.99,,2013-02-24 02:31:00,
2013-02-23 21:41:00,55.0,55.0,29.94,WNW,290,7.0,10.0,100,-99.99,,,-99.99,,2013-02-24 02:41:00,
2013-02-23 21:51:00,55.0,55.0,29.94,WNW,290,7.0,10.0,100,-99.99,,,-99.99,,2013-02-24 02:51:00,
2013-02-23 22:00:00,55.0,55.0,29.96,SW,230,5.0,6.0,100,-99.99,,,-99.99,,2013-02-24 03:00:00,
2013-02-23 22:21:00,55.0,55.0,29.96,SW,230,5.0,6.0,100,-99.99,,,-99.99,,2013-02-24 03:21:00,
2013-02-23 22:31:00,55.0,55.0,29.96,SW,230,5.0,6.0,100,-99.99,,,-99.99,,2013-02-24 03:31:00,
2013-02-23 22:42:00,55.0,55.0,29.96,SW,230,5.0,6.0,100,-99.99,,,-99.99,,2013-02-24 03:42:00,
2013-02-23 22:52:00,55.0,55.0,29.96,SW,230,5.0,6.0,100,-99.99,,,-99.99,,2013-02-24 03:52:00,
2013-02-23 23:00:00,55.0,55.0,29.91,ESE,110,3.0,3.0,100,-99.99,,,-99.99,,2013-02-24 04:00:00,
2013-02-23 23:21:00,55.0,55.0,29.91,ESE,110,3.0,3.0,100,-99.99,,,-99.99,,2013-02-24 04:21:00,
2013-02-23 23:31:00,55.0,55.0,29.91,ESE,110,3.0,3.0,100,-99.99,,,-99.99,,2013-02-24 04:31:00,
2013-02-23 23:41:00,55.0,55.0,29.91,ESE,110,3.0,3.0,100,-99.99,,,-99.99,,2013-02-24 04:41:00,
2013-02-23 23:51:00,55.0,55.0,29.91,ESE,110,3.0,3.0,100,-99.99,,,-99.99,,2013-02-24 04:51:00,